Date String (YYYY-MM-DD hh:mm:ss) UTC,Instrument flags,Ambient pressure (hPa),Sample flow (lpm),Bypass flow (lpm),Sample temperature (°C),Ambient temperature (°C),ASC tube jacket temperature (°C),LED temperature (°C),Box temperature (°C),Sample RH (%),Span deviation,Mass concentration (μg/m³),Mass concentration (μg/m³),Mass concentration (μg/m³)
DateTimeUTC,F1_M11,P_M11,Q1_M11,Q2_M11,T1_M11,T2_M11,T3_M11,T4_M11,T5_M11,U1_M11,ZSPAN_M11,X0_M11,X2_M11,X1_M11
2023-01-07 04:00:00,,0827.2,5.00,0.00,23.3,21.8,00.0,32.3,24.9,11.6,0000.0,0007.15,0004.10,0003.90
2023-01-07 04:01:00,,0827.3,5.00,0.00,23.3,21.8,00.0,32.3,24.9,11.6,0000.0,0007.04,0004.09,0003.91
2023-01-07 04:02:00,,0827.2,5.00,0.00,23.3,21.7,00.0,32.2,24.9,11.7,0000.0,0006.78,0004.07,0003.91
2023-01-07 04:03:00,,0827.3,5.00,0.00,23.3,21.7,00.0,32.2,24.9,11.7,0000.0,0006.73,0004.07,0003.90
2023-01-07 04:04:00,,0827.2,5.00,0.00,23.2,21.7,00.0,32.2,24.9,11.7,0000.0,0006.79,0004.08,0003.89
2023-01-07 04:05:00,,0827.2,4.99,0.00,23.2,21.7,00.0,32.2,24.9,11.7,0000.0,0006.45,0004.06,0003.90
2023-01-07 04:06:00,,0827.3,5.00,0.00,23.2,21.7,00.0,32.2,24.9,11.7,0000.0,0006.29,0004.04,0003.90
2023-01-07 04:07:00,,0827.3,4.99,0.00,23.2,21.7,00.0,32.2,24.9,11.6,0000.0,0006.45,0004.07,0003.90
2023-01-07 04:08:00,,0827.3,5.00,0.00,23.2,21.7,00.0,32.2,24.9,11.6,0000.0,0006.58,0004.08,0003.91
2023-01-07 04:09:00,,0827.3,5.00,0.00,23.2,21.7,00.0,32.2,24.9,11.6,0000.0,0006.55,0004.09,0003.92
2023-01-07 04:10:00,,0827.3,5.00,0.00,23.2,21.7,00.0,32.2,24.9,11.6,0000.0,0006.98,0004.12,0003.95
2023-01-07 04:11:00,,0827.3,4.99,0.00,23.2,21.7,00.0,32.1,24.9,11.5,0000.0,0007.21,0004.18,0004.00
2023-01-07 04:12:00,,0827.4,5.01,0.00,23.2,21.7,00.0,32.1,24.9,11.5,0000.0,0007.28,0004.23,0004.06
2023-01-07 04:13:00,,0827.4,5.01,0.00,23.2,21.7,00.0,32.1,24.9,11.6,0000.0,0007.37,0004.29,0004.10
2023-01-07 04:14:00,,0827.4,5.00,0.00,23.2,21.7,00.0,32.1,24.9,11.6,0000.0,0007.50,0004.37,0004.17
2023-01-07 04:15:00,,0827.4,5.00,0.00,23.2,21.7,00.0,32.1,24.9,11.6,0000.0,0007.57,0004.40,0004.21
2023-01-07 04:16:00,,0827.4,4.99,0.00,23.2,21.7,00.0,32.1,24.9,11.6,0000.0,0007.62,0004.44,0004.25
2023-01-07 04:17:00,,0827.4,4.99,0.00,23.2,21.7,00.0,32.1,24.9,11.6,0000.0,0007.65,0004.47,0004.28
2023-01-07 04:18:00,,0827.5,5.00,0.00,23.1,21.7,00.0,32.1,24.8,11.6,0000.0,0007.72,0004.51,0004.31
2023-01-07 04:19:00,,0827.6,5.00,0.00,23.1,21.7,00.0,32.1,24.8,11.7,0000.0,0007.67,0004.49,0004.31
2023-01-07 04:20:00,,0827.6,4.99,0.00,23.1,21.6,00.0,32.1,24.8,11.8,0000.0,0007.68,0004.50,0004.31
2023-01-07 04:21:00,,0827.5,5.00,0.00,23.1,21.6,00.0,32.0,24.7,11.9,0000.0,0007.72,0004.50,0004.29
2023-01-07 04:22:00,,0827.5,5.02,0.00,23.1,21.6,00.0,32.0,24.7,11.9,0000.0,0006.95,0004.46,0004.24
2023-01-07 04:23:00,,0827.5,5.01,0.00,23.0,21.5,00.0,32.0,24.8,11.9,0000.0,0007.02,0004.44,0004.19
2023-01-07 04:24:00,,0827.5,5.00,0.00,23.0,21.5,00.0,32.0,24.7,11.9,0000.0,0007.06,0004.41,0004.15
2023-01-07 04:25:00,,0827.5,5.00,0.00,23.0,21.5,00.0,32.0,24.7,11.9,0000.0,0006.86,0004.33,0004.08
2023-01-07 04:26:00,,0827.5,4.99,0.00,23.0,21.5,00.0,32.0,24.7,11.9,0000.0,0006.73,0004.29,0004.03
2023-01-07 04:27:00,,0827.5,5.00,0.00,23.0,21.5,00.0,32.0,24.7,11.9,0000.0,0006.60,0004.24,0003.99
2023-01-07 04:28:00,,0827.5,5.01,0.00,23.0,21.5,00.0,31.9,24.6,11.9,0000.0,0006.52,0004.20,0003.95
2023-01-07 04:29:00,,0827.5,5.00,0.00,23.0,21.5,00.0,31.9,24.6,11.9,0000.0,0006.49,0004.14,0003.91
2023-01-07 04:30:00,,0827.5,5.00,0.00,23.0,21.5,00.0,31.9,24.6,11.9,0000.0,0006.52,0004.10,0003.88
2023-01-07 04:31:00,,0827.5,5.01,0.00,22.9,21.5,00.0,31.9,24.6,11.9,0000.0,0006.58,0004.10,0003.85
2023-01-07 04:32:00,,0827.6,5.01,0.00,22.9,21.5,00.0,31.9,24.6,11.9,0000.0,0006.54,0004.08,0003.83
2023-01-07 04:33:00,,0827.5,4.99,0.00,22.9,21.4,00.0,31.9,24.6,11.8,0000.0,0006.35,0004.08,0003.84
2023-01-07 04:34:00,,0827.6,5.01,0.00,22.9,21.4,00.0,31.9,24.6,12.0,0000.0,0006.31,0004.09,0003.86
2023-01-07 04:35:00,,0827.6,5.00,0.00,22.9,21.4,00.0,31.9,24.6,12.0,0000.0,0006.13,0004.05,0003.85
2023-01-07 04:36:00,,0827.7,5.00,0.00,22.9,21.4,00.0,31.9,24.6,12.0,0000.0,0006.15,0004.06,0003.87
2023-01-07 04:37:00,,0827.7,5.01,0.00,22.9,21.4,00.0,31.8,24.6,12.0,0000.0,0006.20,0004.08,0003.88
2023-01-07 04:38:00,,0827.7,5.00,0.00,22.9,21.4,00.0,31.8,24.5,12.0,0000.0,0006.22,0004.09,0003.89
2023-01-07 04:39:00,,0827.7,5.00,0.00,22.9,21.4,00.0,31.8,24.5,12.0,0000.0,0006.47,0004.11,0003.90
2023-01-07 04:40:00,,0827.7,5.00,0.00,22.8,21.4,00.0,31.8,24.5,12.1,0000.0,0006.96,0004.15,0003.91
2023-01-07 04:41:00,,0827.6,5.00,0.00,22.8,21.4,00.0,31.8,24.5,12.2,0000.0,0006.64,0004.17,0003.92
2023-01-07 04:42:00,,0827.6,5.00,0.00,22.8,21.3,00.0,31.8,24.5,12.1,0000.0,0006.75,0004.21,0003.95
2023-01-07 04:43:00,,0827.6,5.00,0.00,22.8,21.4,00.0,31.8,24.6,12.1,0000.0,0006.75,0004.24,0003.97
2023-01-07 04:44:00,,0827.7,5.00,0.00,22.8,21.4,00.0,31.8,24.6,12.1,0000.0,0006.72,0004.24,0003.99
2023-01-07 04:45:00,,0827.7,5.00,0.00,22.8,21.3,00.0,31.8,24.5,12.1,0000.0,0006.69,0004.23,0004.00
2023-01-07 04:46:00,,0827.7,5.00,0.00,22.8,21.3,00.0,31.8,24.5,12.1,0000.0,0006.97,0004.27,0004.02
2023-01-07 04:47:00,,0827.7,5.00,0.00,22.8,21.3,00.0,31.7,24.5,12.1,0000.0,0007.84,0004.31,0004.04
2023-01-07 04:48:00,,0827.7,5.00,0.00,22.8,21.3,00.0,31.7,24.4,12.0,0000.0,0007.87,0004.34,0004.06
2023-01-07 04:49:00,,0827.7,5.00,0.00,22.8,21.3,00.0,31.7,24.4,12.0,0000.0,0007.87,0004.34,0004.07
2023-01-07 04:50:00,,0827.7,4.99,0.00,22.7,21.3,00.0,31.7,24.4,12.1,0000.0,0007.85,0004.36,0004.08
2023-01-07 04:51:00,,0827.7,5.00,0.00,22.7,21.3,00.0,31.7,24.4,12.1,0000.0,0007.61,0004.36,0004.09
2023-01-07 04:52:00,,0827.7,5.00,0.00,22.7,21.3,00.0,31.7,24.4,12.0,0000.0,0007.63,0004.38,0004.12
2023-01-07 04:53:00,,0827.7,5.00,0.00,22.7,21.3,00.0,31.7,24.4,12.0,0000.0,0007.70,0004.43,0004.17
2023-01-07 04:54:00,,0827.7,5.00,0.00,22.7,21.3,00.0,31.7,24.4,12.0,0000.0,0007.71,0004.45,0004.21
2023-01-07 04:55:00,,0827.7,5.01,0.00,22.7,21.2,00.0,31.7,24.4,12.0,0000.0,0007.74,0004.48,0004.23
2023-01-07 04:56:00,,0827.7,5.00,0.00,22.7,21.2,00.0,31.6,24.4,12.0,0000.0,0007.82,0004.54,0004.28
2023-01-07 04:57:00,,0827.7,5.00,0.00,22.7,21.2,00.0,31.6,24.4,12.1,0000.0,0007.85,0004.59,0004.33
2023-01-07 04:58:00,,0827.7,5.01,0.00,22.7,21.2,00.0,31.6,24.4,12.1,0000.0,0007.05,0004.62,0004.36
2023-01-07 04:59:00,,0827.8,5.01,0.00,22.7,21.2,00.0,31.6,24.3,12.1,0000.0,0007.10,0004.64,0004.40
